| time (UTC) | temp C | wind direction | speed KPH | gust KPH | rain 1hr cm | rain 24hr cm | rain mn cm | humidity % | barometer mb |
| 20260506103136 | 12 | 30 | 14.5 | 0.0 | 0.00 | 0.00 | 0.00 | 66 | 1009.1 |
| 20260506101538 | 12 | 344 | 19.3 | 0.0 | 0.00 | 0.00 | 0.00 | 63 | 1009.0 |
| 20260506100056 | 11 | 359 | 20.9 | 0.0 | 0.00 | 0.00 | 0.00 | 66 | 1009.0 |
| 20260506094629 | 11 | 0 | 16.1 | 0.0 | 0.00 | 0.00 | 0.00 | 68 | 1009.1 |
| 20260506093132 | 11 | 1 | 16.1 | 0.0 | 0.00 | 0.00 | 0.00 | 69 | 1009.0 |
| 20260506091632 | 10 | 13 | 17.7 | 0.0 | 0.00 | 0.00 | 0.00 | 70 | 1009.0 |
| 20260506090103 | 10 | 1 | 16.1 | 0.0 | 0.00 | 0.00 | 0.00 | 74 | 1009.0 |
| 20260506084627 | 10 | 0 | 14.5 | 0.0 | 0.00 | 0.00 | 0.00 | 78 | 1009.0 |
| 20260506083019 | 9 | 359 | 12.9 | 0.0 | 0.00 | 0.00 | 0.00 | 80 | 1008.9 |
| 20260506081628 | 8 | 349 | 14.5 | 0.0 | 0.00 | 0.00 | 0.00 | 82 | 1008.9 |
| 20260506080130 | 8 | 351 | 17.7 | 0.0 | 0.00 | 0.00 | 0.00 | 82 | 1008.9 |
| 20260506073012 | 7 | 326 | 16.1 | 0.0 | 0.00 | 0.00 | 0.00 | 86 | 1008.9 |
| 20260506071634 | 7 | 338 | 16.1 | 0.0 | 0.00 | 0.00 | 0.00 | 87 | 1008.8 |
| 20260506070131 | 6 | 334 | 12.9 | 0.0 | 0.00 | 0.00 | 0.00 | 88 | 1008.7 |
| 20260506061556 | 6 | 346 | 9.7 | 0.0 | 0.00 | 0.00 | 0.00 | 88 | 1008.4 |
| 20260506050120 | 4 | 330 | 12.9 | 0.0 | 0.00 | 0.00 | 0.00 | 90 | 1008.4 |
| 20260506044623 | 3 | 345 | 12.9 | 0.0 | 0.00 | 0.00 | 0.00 | 90 | 1008.2 |
| 20260506043039 | 3 | 335 | 12.9 | 0.0 | 0.00 | 0.00 | 0.00 | 89 | 1008.3 |
| 20260506041639 | 4 | 333 | 12.9 | 0.0 | 0.00 | 0.00 | 0.00 | 89 | 1008.4 |
| 20260506040043 | 4 | 341 | 14.5 | 0.0 | 0.00 | 0.00 | 0.00 | 89 | 1008.4 |
| 20260506034604 | 4 | 335 | 14.5 | 0.0 | 0.00 | 0.00 | 0.00 | 89 | 1008.4 |
| 20260506033129 | 4 | 337 | 16.1 | 0.0 | 0.00 | 0.00 | 0.00 | 88 | 1008.4 |
| 20260506031524 | 5 | 328 | 14.5 | 0.0 | 0.00 | 0.00 | 0.00 | 88 | 1008.4 |
| 20260506030133 | 5 | 330 | 14.5 | 0.0 | 0.00 | 0.00 | 0.00 | 88 | 1008.4 |
| 20260506024541 | 5 | 326 | 14.5 | 0.0 | 0.00 | 0.00 | 0.00 | 88 | 1008.5 |
| 20260506023132 | 5 | 328 | 14.5 | 0.0 | 0.00 | 0.00 | 0.00 | 88 | 1008.8 |
| 20260506021519 | 5 | 338 | 12.9 | 0.0 | 0.00 | 0.00 | 0.00 | 88 | 1008.8 |
| 20260506020033 | 5 | 330 | 14.5 | 0.0 | 0.00 | 0.00 | 0.00 | 87 | 1008.8 |
| 20260506014531 | 5 | 332 | 11.3 | 0.0 | 0.00 | 0.00 | 0.00 | 87 | 1008.9 |
| 20260506013135 | 5 | 334 | 11.3 | 0.0 | 0.00 | 0.00 | 0.00 | 86 | 1009.0 |
| 20260506011537 | 6 | 343 | 9.7 | 0.0 | 0.00 | 0.00 | 0.00 | 85 | 1009.0 |
| 20260506010111 | 6 | 335 | 9.7 | 0.0 | 0.00 | 0.00 | 0.00 | 85 | 1009.0 |
| 20260506004627 | 6 | 334 | 11.3 | 0.0 | 0.00 | 0.00 | 0.00 | 84 | 1009.2 |
| 20260506003138 | 7 | 330 | 8.0 | 0.0 | 0.00 | 0.00 | 0.00 | 83 | 1009.3 |
| 20260506001529 | 7 | 348 | 11.3 | 0.0 | 0.00 | 0.00 | 0.00 | 81 | 1009.3 |
| 20260506000132 | 7 | 344 | 9.7 | 0.0 | 0.00 | 0.00 | 0.00 | 81 | 1009.4 |
| 20260505234526 | 7 | 353 | 9.7 | 0.0 | 0.00 | 0.00 | 0.00 | 80 | 1009.4 |
| 20260505233041 | 7 | 338 | 9.7 | 0.0 | 0.00 | 0.00 | 0.00 | 80 | 1009.5 |
| 20260505231649 | 8 | 348 | 9.7 | 0.0 | 0.00 | 0.00 | 0.00 | 79 | 1009.5 |
| 20260505230101 | 8 | 0 | 9.7 | 0.0 | 0.00 | 0.00 | 0.00 | 79 | 1009.5 |
| 20260505224549 | 8 | 358 | 9.7 | 0.0 | 0.00 | 0.00 | 0.00 | 79 | 1009.5 |
| 20260505223036 | 8 | 12 | 11.3 | 0.0 | 0.00 | 0.00 | 0.00 | 79 | 1009.4 |
| 20260505221635 | 8 | 349 | 11.3 | 0.0 | 0.00 | 0.00 | 0.00 | 78 | 1009.5 |
| 20260505220135 | 8 | 347 | 11.3 | 0.0 | 0.00 | 0.00 | 0.00 | 78 | 1009.6 |
| 20260505214615 | 8 | 22 | 11.3 | 0.0 | 0.00 | 0.00 | 0.00 | 78 | 1009.6 |
| 20260505213105 | 8 | 1 | 9.7 | 0.0 | 0.00 | 0.00 | 0.00 | 78 | 1009.5 |
| 20260505211512 | 8 | 359 | 11.3 | 0.0 | 0.00 | 0.00 | 0.00 | 79 | 1009.5 |
| 20260505210108 | 8 | 10 | 11.3 | 0.0 | 0.00 | 0.00 | 0.00 | 80 | 1009.5 |
| 20260505204629 | 8 | 18 | 9.7 | 0.0 | 0.00 | 0.00 | 0.00 | 79 | 1009.5 |
| 20260505203056 | 9 | 354 | 9.7 | 0.0 | 0.00 | 0.00 | 0.00 | 78 | 1009.4 |
| 20260505201534 | 9 | 21 | 11.3 | 0.0 | 0.00 | 0.00 | 0.00 | 77 | 1009.5 |
| 20260505200057 | 9 | 359 | 12.9 | 0.0 | 0.00 | 0.00 | 0.00 | 76 | 1009.4 |
| 20260505194614 | 9 | 0 | 9.7 | 0.0 | 0.00 | 0.00 | 0.00 | 78 | 1009.3 |
| 20260505193026 | 10 | 356 | 12.9 | 0.0 | 0.00 | 0.00 | 0.00 | 78 | 1009.1 |
| 20260505191630 | 10 | 15 | 11.3 | 0.0 | 0.00 | 0.00 | 0.00 | 78 | 1008.9 |
| 20260505190022 | 10 | 0 | 12.9 | 0.0 | 0.00 | 0.00 | 0.00 | 78 | 1008.8 |
| 20260505184538 | 10 | 38 | 9.7 | 0.0 | 0.00 | 0.00 | 0.00 | 78 | 1008.6 |
| 20260505183033 | 10 | 25 | 12.9 | 0.0 | 0.00 | 0.00 | 0.00 | 77 | 1008.5 |
| 20260505181534 | 11 | 31 | 11.3 | 0.0 | 0.00 | 0.00 | 0.00 | 77 | 1008.5 |
| 20260505180132 | 11 | 7 | 12.9 | 0.0 | 0.00 | 0.00 | 0.00 | 76 | 1008.5 |
| 20260505174628 | 11 | 19 | 14.5 | 0.0 | 0.00 | 0.00 | 0.00 | 74 | 1008.4 |
| 20260505173143 | 12 | 359 | 12.9 | 0.0 | 0.00 | 0.00 | 0.00 | 74 | 1008.4 |
| 20260505171646 | 12 | 17 | 16.1 | 0.0 | 0.00 | 0.00 | 0.00 | 72 | 1008.4 |
| 20260505170044 | 12 | 46 | 14.5 | 0.0 | 0.00 | 0.00 | 0.00 | 74 | 1008.4 |
| 20260505164601 | 13 | 39 | 14.5 | 0.0 | 0.00 | 0.00 | 0.00 | 73 | 1008.4 |
| 20260505163010 | 13 | 76 | 14.5 | 0.0 | 0.00 | 0.00 | 0.00 | 73 | 1008.3 |
| 20260505161605 | 13 | 37 | 14.5 | 0.0 | 0.00 | 0.00 | 0.00 | 72 | 1008.1 |
| 20260505153133 | 13 | 57 | 11.3 | 0.0 | 0.00 | 0.00 | 0.00 | 72 | 1008.3 |
| 20260505151603 | 13 | 32 | 9.7 | 0.0 | 0.00 | 0.00 | 0.00 | 72 | 1008.3 |
| 20260505124521 | 17 | 58 | 11.3 | 0.0 | 0.00 | 0.00 | 0.00 | 65 | 1008.3 |
| 20260505123048 | 16 | 1 | 9.7 | 0.0 | 0.00 | 0.00 | 0.00 | 56 | 1008.1 |
| 20260505121501 | 18 | 352 | 8.0 | 0.0 | 0.00 | 0.00 | 0.00 | 54 | 1008.3 |
| 20260505120045 | 18 | 331 | 9.7 | 0.0 | 0.00 | 0.00 | 0.00 | 50 | 1008.3 |
| 20260505114551 | 17 | 342 | 6.4 | 0.0 | 0.00 | 0.00 | 0.00 | 58 | 1008.4 |
| 20260505113036 | 17 | 351 | 8.0 | 0.0 | 0.00 | 0.00 | 0.00 | 58 | 1008.4 |
| 20260505111527 | 17 | 257 | 8.0 | 0.0 | 0.00 | 0.00 | 0.00 | 55 | 1008.5 |
| 20260505110136 | 17 | 345 | 6.4 | 0.0 | 0.00 | 0.00 | 0.00 | 57 | 1008.6 |